[[{"header":{"parameterUnit":"m.s-1","parameterCategory":1,"la1":30.2991,"la2":30.254,"lo1":-89.0895,"lo2":-89.0444,"dy":0.0017,"dx":0.0017,"nx":28,"ny":28,"refTime":"2025-02-09T09:00:00:Z","depth":0,"parameterNumber":2,"parameterNumberName":"U-component_of_WINDS"},"data":[0,0,0,0,0,0,0,0,0,0,0,0,0,0,0,0,0,0,0,0,0,0,0,0,0,0,0,0,0,0,0,0,0,0,0,0,0,0,0,0,0,0,0,0,0,0,0,0,0,0,0,0,0,0,0,0,0,0,-4.0446,-4.0447,0,-4.0542,-4.0543,-4.0544,-4.0549,-4.0547,-4.0546,-4.0545,-4.0641,-4.0644,-4.0648,0,0,0,0,0,0,0,0,0,0,0,0,0,-4.0266,-4.0269,-4.0446,-4.0447,-4.0449,-4.0542,-4.0543,-4.0544,-4.0549,-4.0547,-4.0546,-4.0545,-4.0639,-4.0644,-4.0648,0,0,0,0,0,0,0,0,0,0,0,0,0,-4.0351,-4.027,-4.0446,-4.0462,-4.0465,-4.0542,-4.0543,-4.0545,-4.0549,-4.0547,-4.0546,-4.0544,-4.0638,-4.0643,-4.0648,-4.0715,0,0,-4.0665,-4.0667,0,0,0,0,0,0,0,0,-4.0346,-4.0357,-4.0459,-4.0461,-4.0464,-4.0532,-4.0514,-4.0602,-4.0549,-4.0517,-4.0545,-4.0543,-4.0605,-4.0613,-4.0635,-4.0719,-4.0724,-4.0665,-4.0669,-4.0671,-4.0672,0,0,0,0,0,0,0,-4.034,-4.0353,-4.0484,-4.046,-4.0463,-4.0464,-4.0474,-4.0531,-4.0569,-4.052,-4.052,-4.0532,-4.0607,-4.063,-4.0637,-4.0725,-4.0665,-4.067,-4.0673,-4.0675,-4.0869,-4.0871,0,0,0,0,0,0,-4.0331,-4.0348,-4.0481,-4.0487,-4.04,-4.0469,-4.048,-4.0512,-4.0569,-4.0576,-4.0533,-4.0531,-4.0621,-4.0631,-4.0641,-4.0721,-4.0671,-4.0676,-4.0679,-4.0867,-4.0869,-4.0871,0,0,0,0,0,0,-4.0327,-4.0343,-4.0477,-4.0418,-4.0435,-4.0474,-4.0509,-4.0514,-4.0537,-4.0579,-4.0585,-4.055,-4.062,-4.0633,-4.0697,-4.0725,-4.0678,-4.0683,-4.0865,-4.0868,-4.087,-4.0884,0,0,0,0,0,0,-4.0322,-4.0342,-4.0368,-4.0419,-4.0438,-4.0532,-4.0511,-4.0517,-4.0547,-4.0546,-4.0596,-4.0603,-4.062,-4.0689,-4.0702,-4.0731,-4.0687,-4.0862,-4.0866,-4.087,-4.0881,-4.0887,-4.0892,0,0,0,0,0,-4.0316,-4.0367,-4.0369,-4.0385,-4.0472,-4.0534,-4.0545,-4.0564,-4.0549,-4.0575,-4.0602,-4.0601,-4.072,-4.0695,-4.071,-4.0742,-4.0861,-4.0865,-4.0869,-4.0879,-4.0886,-4.0892,0,0,0,0,0,0,-4.0317,-4.0374,-4.0376,-4.0446,-4.0485,-4.0534,-4.0567,-4.0571,-4.0615,-4.0612,-4.0634,-4.0645,-4.0708,-4.0732,-4.0702,-4.0809,-4.0789,-4.0796,-4.0791,-4.0798,-4.0803,-4.0795,-4.0692,0,0,0,0,0,-4.0326,-4.0372,-4.0419,-4.0476,-4.0496,-4.0529,-4.0556,-4.0568,-4.0609,-4.0625,-4.0657,-4.0696,-4.0742,-4.0772,-4.0817,-4.0886,-4.0896,-4.0915,-4.0921,-4.0925,-4.093,-4.0968,-4.0977,-4.0886,-4.0886,-4.0886,0,0,-4.0343,-4.038,-4.0408,-4.0477,-4.0509,-4.0556,-4.0542,-4.0592,-4.0627,-4.0633,-4.0694,-4.0719,-4.0764,-4.0831,-4.0862,-4.0853,-4.0958,-4.093,-4.0934,-4.0937,-4.0973,-4.0982,-4.099,-4.0889,-4.0888,-4.0888,0,0,-4.0399,-4.0432,-4.0483,-4.0516,-4.0564,-4.0586,-4.0598,-4.0648,-4.0664,-4.0727,-4.0733,-4.0775,-4.0854,-4.0886,-4.0912,-4.0982,-4.0983,-4.0997,-4.1024,-4.106,-4.1068,-4.1074,-4.1097,-4.1106,-4.1002,-4.1003,-4.1003,0,-4.0414,-4.0486,-4.0508,-4.0559,-4.0588,-4.0598,-4.0649,-4.0679,-4.074,-4.076,-4.0749,-4.085,-4.0881,-4.0955,-4.0972,-4.0994,-4.1008,-4.0989,-4.1065,-4.1072,-4.1078,-4.11,-4.1109,-4.1004,-4.1004,-4.1003,-4.1003,0,-4.0501,-4.0551,-4.0586,-4.0645,-4.068,-4.073,-4.076,-4.0792,-4.0802,-4.0824,-4.0888,-4.0927,-4.0979,-4.0998,-4.1008,-4.1074,-4.1067,-4.1061,-4.104,-4.1087,-4.1109,-4.1118,-4.1005,-4.1005,-4.1005,-4.1004,0,0,-4.0557,-4.063,-4.0642,-4.0669,-4.0725,-4.0763,-4.0815,-4.0867,-4.0894,-4.0936,-4.0978,-4.1047,-4.1042,-4.1072,-4.1086,-4.1118,-4.117,-4.1108,-4.1109,-4.1116,-4.1243,-4.1246,-4.1255,-4.1172,-4.1174,-4.1175,-4.1239,0,-4.0617,-4.0709,-4.0732,-4.0809,-4.0855,-4.0866,-4.091,-4.0949,-4.0972,-4.1014,-4.104,-4.1087,-4.1078,-4.1096,-4.1129,-4.1156,-4.1195,-4.1153,-4.121,-4.1212,-4.1195,-4.1267,-4.127,-4.1328,-4.1248,-4.1249,-4.125,0,-4.0699,-4.0744,-4.0826,-4.0877,-4.0897,-4.0936,-4.0986,-4.1027,-4.1071,-4.1086,-4.1121,-4.1132,-4.1185,-4.1164,-4.1237,-4.1207,-4.1233,-4.125,-4.1253,-4.1257,-4.1232,-4.1271,-4.1347,-4.1355,-4.1264,-4.1263,-4.1262,0,-4.0729,-4.0811,-4.087,-4.0894,-4.0954,-4.0981,-4.1008,-4.1051,-4.1081,-4.1125,-4.1145,-4.1195,-4.1221,-4.126,-4.1283,-4.1266,-4.1354,-4.1335,-4.1367,-4.1366,-4.1382,-4.138,-4.1461,-4.1403,-4.1403,-4.1402,-4.1402,0,-4.0792,-4.0842,-4.0885,-4.0921,-4.0977,-4.1003,-4.1058,-4.1084,-4.1123,-4.1164,-4.1178,-4.1216,-4.1246,-4.1289,-4.1309,-4.1365,-4.1378,-4.139,-4.1394,-4.1388,-4.1386,-4.1402,-4.1398,-4.1405,-4.1404,-4.1404,-4.1403,0,-4.0834,-4.0865,-4.0931,-4.0983,-4.0998,-4.1037,-4.1081,-4.1117,-4.1142,-4.1194,-4.1208,-4.1247,-4.1298,-4.1326,-4.139,-4.1403,-4.1466,-4.1469,-4.1451,-4.1452,-4.1481,-4.1477,-4.1574,-4.1587,-4.1522,-4.1522,-4.1523,0,-4.0871,-4.0909,-4.0967,-4.0996,-4.1023,-4.107,-4.1101,-4.1129,-4.1162,-4.1216,-4.1245,-4.1297,-4.134,-4.1421,-4.1454,-4.1503,-4.1506,-4.1537,-4.1513,-4.1506,-4.1504,-4.1501,-4.1504,-4.154,-4.154,-4.1541,-4.1541,0,-4.0932,-4.0946,-4.0992,-4.1043,-4.108,-4.1122,-4.1163,-4.1186,-4.1221,-4.1256,-4.1309,-4.1343,-4.1409,-4.146,-4.1512,-4.1539,-4.1545,-4.1549,-4.1558,-4.155,-4.1537,-4.1543,-4.1459,-4.1546,-4.1545,-4.1545,-4.1545,-4.1544,-4.0971,-4.1006,-4.1052,-4.1102,-4.1137,-4.1175,-4.1211,-4.1241,-4.1286,-4.1342,-4.1357,-4.1412,-4.1456,-4.1527,-4.1555,-4.1599,-4.1593,-4.1607,-4.161,-4.1613,-4.1613,-4.1533,-4.1609,-4.1609,-4.1608,-4.1608,-4.1608,0,-4.1032,-4.1063,-4.1109,-4.1166,-4.1206,-4.1211,-4.1257,-4.129,-4.1338,-4.138,-4.1422,-4.1483,-4.1533,-4.1572,-4.1623,-4.165,-4.1654,-4.1662,-4.1659,-4.1665,-4.1616,-4.1601,-4.1658,-4.1658,-4.1658,-4.1658,-4.1658,-4.1658,-4.1068,-4.1126,-4.1146,-4.1222,-4.1252,-4.1307,-4.1333,-4.1368,-4.1401,-4.1469,-4.1511,-4.1537,-4.1577,-4.1631,-4.1677,-4.1687,-4.1705,-4.1712,-4.1722,-4.1674,-4.1669,-4.1663,-4.165,-4.1716,-4.1716,-4.1767,-4.1768,-4.1768]},{"header":{"parameterUnit":"m.s-1","parameterCategory":1,"la1":30.2991,"la2":30.254,"lo1":-89.0895,"lo2":-89.0444,"dy":0.0017,"dx":0.0017,"nx":28,"ny":28,"refTime":"2025-02-09T09:00:00:Z","depth":0,"parameterNumber":3,"parameterNumberName":"V-component_of_WINDS"},"data":[0,0,0,0,0,0,0,0,0,0,0,0,0,0,0,0,0,0,0,0,0,0,0,0,0,0,0,0,0,0,0,0,0,0,0,0,0,0,0,0,0,0,0,0,0,0,0,0,0,0,0,0,0,0,0,0,0,0,2.9601,2.9602,0,2.9703,2.9704,2.9705,2.9724,2.9723,2.9722,2.9721,2.9825,2.9829,2.9832,0,0,0,0,0,0,0,0,0,0,0,0,0,2.9426,2.9429,2.9601,2.9602,2.9603,2.9702,2.9704,2.9705,2.9724,2.9723,2.9722,2.9721,2.9824,2.9828,2.9833,0,0,0,0,0,0,0,0,0,0,0,0,0,2.9512,2.943,2.9601,2.9625,2.9628,2.9702,2.9704,2.9706,2.9724,2.9723,2.9721,2.972,2.9823,2.9828,2.9833,2.9891,0,0,2.985,2.9852,0,0,0,0,0,0,0,0,2.9507,2.9519,2.962,2.9623,2.9627,2.9699,2.968,2.9768,2.9724,2.9687,2.9721,2.972,2.9784,2.9793,2.9815,2.9896,2.99,2.985,2.9853,2.9856,2.9857,0,0,0,0,0,0,0,2.9501,2.9514,2.9641,2.9621,2.9626,2.9631,2.9642,2.9697,2.9742,2.9691,2.9692,2.9704,2.9786,2.9809,2.9817,2.9902,2.985,2.9855,2.9858,2.986,3.004,3.0042,0,0,0,0,0,0,2.9491,2.9509,2.9638,2.9644,2.9563,2.9635,2.9648,2.9677,2.9741,2.975,2.9705,2.9704,2.9801,2.9811,2.9821,2.9896,2.9855,2.986,2.9864,3.0039,3.0041,3.0043,0,0,0,0,0,0,2.9487,2.9502,2.9634,2.9577,2.9594,2.964,2.9673,2.968,2.9703,2.9752,2.976,2.972,2.98,2.9813,2.9875,2.99,2.9863,2.9868,3.0037,3.0039,3.0042,3.0044,0,0,0,0,0,0,2.9482,2.9501,2.9522,2.9578,2.9597,2.9685,2.9674,2.9683,2.9712,2.9713,2.9769,2.9777,2.98,2.9866,2.988,2.9906,2.9872,3.0035,3.0038,3.0041,3.0042,3.0047,3.005,0,0,0,0,0,2.9476,2.9518,2.9523,2.9538,2.9625,2.9686,2.9697,2.9724,2.9714,2.9737,2.9769,2.9775,2.9895,2.9873,2.9888,2.9916,3.0033,3.0037,3.0041,3.0041,3.0046,3.005,0,0,0,0,0,0,2.9463,2.9525,2.9532,2.9593,2.9634,2.9689,2.9718,2.9728,2.9772,2.9771,2.9802,2.9814,2.9875,2.9901,2.9876,2.9978,2.9964,2.997,2.9958,2.9964,2.9968,2.9961,2.9876,0,0,0,0,0,2.9468,2.9511,2.9563,2.9613,2.9633,2.9672,2.97,2.9717,2.9761,2.9778,2.9814,2.9857,2.9905,2.9935,2.9982,3.0046,3.0061,3.0074,3.0078,3.0081,3.0087,3.0127,3.0134,3.0054,3.0054,3.0054,0,0,2.9477,2.9517,2.9542,2.9611,2.9645,2.9692,2.9687,2.9735,2.977,2.9785,2.9846,2.9875,2.9925,2.9989,3.0019,3.0013,3.0112,3.0085,3.0087,3.0092,3.0131,3.0139,3.0146,3.0057,3.0056,3.0056,0,0,2.9519,2.9552,2.9598,2.9633,2.9685,2.9711,2.9723,2.9777,2.9797,2.9858,2.9872,2.9915,2.9995,3.0031,3.006,3.012,3.0128,3.0134,3.0155,3.0194,3.0201,3.0206,3.0231,3.0239,3.0139,3.0139,3.0139,0,2.9524,2.9594,2.9621,2.967,2.9701,2.9718,2.9767,2.98,2.9864,2.9886,2.9878,2.9983,3.0017,3.0092,3.0107,3.0129,3.0145,3.0128,3.0197,3.0203,3.0209,3.0233,3.0242,3.014,3.014,3.014,3.014,0,2.96,2.9648,2.9679,2.9743,2.9778,2.9826,2.9862,2.9894,2.9909,2.9937,3.0001,3.0044,3.0101,3.012,3.0133,3.0198,3.0193,3.0191,3.0178,3.0217,3.024,3.0249,3.0141,3.0141,3.014,3.014,0,0,2.9635,2.9715,2.9726,2.9757,2.9817,2.9856,2.9906,2.9963,2.9991,3.0036,3.0081,3.015,3.015,3.0183,3.0201,3.0235,3.0284,3.023,3.0232,3.0241,3.0362,3.0365,3.0375,3.029,3.0292,3.0293,3.0359,0,2.9686,2.9777,2.9804,2.9881,2.9928,2.9947,2.9991,3.0034,3.0062,3.0107,3.0137,3.0188,3.0182,3.0203,3.0237,3.0271,3.0309,3.0266,3.0334,3.0336,3.0323,3.0386,3.0389,3.0449,3.0368,3.0369,3.037,0,2.9757,2.9805,2.9887,2.9944,2.9965,3.0005,3.0061,3.0103,3.0153,3.0171,3.021,3.0226,3.0282,3.0265,3.0344,3.0314,3.0344,3.0365,3.0368,3.0377,3.0357,3.0399,3.0468,3.0478,3.0384,3.0383,3.0382,0,2.9779,2.9863,2.9924,2.9949,3.0017,3.0045,3.0075,3.0124,3.0157,3.0207,3.0229,3.0284,3.0314,3.0357,3.0389,3.0373,3.0467,3.0451,3.0486,3.0485,3.0506,3.0504,3.0582,3.052,3.052,3.052,3.052,0,2.9835,2.9885,2.9936,2.9973,3.0031,3.0063,3.012,3.015,3.0194,3.024,3.0258,3.03,3.0339,3.0387,3.0412,3.0476,3.0489,3.0507,3.0514,3.0507,3.0505,3.0528,3.0526,3.0523,3.0522,3.0522,3.0521,0,2.9869,2.9905,2.9973,3.0033,3.0049,3.0089,3.0141,3.018,3.0209,3.0267,3.0282,3.0329,3.0387,3.0423,3.0495,3.0513,3.0584,3.0588,3.0568,3.0571,3.0605,3.0603,3.0703,3.0719,3.0643,3.0644,3.0644,0,2.9903,2.9942,3.0007,3.0039,3.007,3.0121,3.0156,3.019,3.0226,3.0288,3.0319,3.0379,3.0428,3.0521,3.0562,3.0619,3.0626,3.0657,3.0634,3.0628,3.063,3.0629,3.0634,3.0661,3.0662,3.0662,3.0663,0,2.9961,2.9978,3.0027,3.0085,3.0126,3.0172,3.0219,3.0244,3.0286,3.0326,3.0386,3.0425,3.0501,3.0561,3.0623,3.0655,3.0667,3.067,3.0681,3.0676,3.0664,3.0674,3.0581,3.0667,3.0667,3.0667,3.0666,3.0666,2.9999,3.0036,3.0089,3.0145,3.0183,3.0227,3.0267,3.0303,3.0354,3.0419,3.0436,3.05,3.0552,3.0636,3.067,3.0722,3.0717,3.0733,3.0738,3.0742,3.0745,3.0654,3.0732,3.0732,3.0732,3.0732,3.0732,0,3.006,3.0096,3.0147,3.0212,3.0257,3.0265,3.0317,3.0355,3.0411,3.0459,3.0508,3.0579,3.0638,3.0685,3.0746,3.0779,3.0787,3.0794,3.0793,3.0802,3.0743,3.0728,3.0787,3.0787,3.0787,3.0787,3.0787,3.0787,3.0098,3.0163,3.0186,3.0272,3.0307,3.0371,3.0401,3.0442,3.0481,3.056,3.0609,3.064,3.0688,3.0754,3.0809,3.0822,3.0845,3.0852,3.0866,3.0811,3.0805,3.0799,3.0786,3.0856,3.0856,3.0921,3.0921,3.0922]}]]